This demonstration page uses our WeatherBlox Daily Observations layout. Learn more.

Left ArrowRight Arrow

39.01783, -85.05884

Hourly Observations for November 19, 2020

Temp ( °F °C ) Dew Point ( °F °C ) Humidity (%) Winds ( mph kmh ) Pressure ( in mb ) Visibility ( mi km ) Precip ( " mm )
12:52 am 00:52 Mostly Clear 39 3.9 22 -5.6 50 50 S 10 17 30.38 1029 10 16.0934 0 0
1:52 am 01:52 Mostly Clear 37 2.8 22 -5.6 54 54 S 9 15 30.37 1029 10 16.0934 0 0
2:52 am 02:52 Partly Cloudy 38 3.3 22 -5.6 52 52 S 10 17 30.36 1028 10 16.0934 0 0
3:52 am 03:52 Partly Cloudy 39 3.9 22 -5.6 50 50 S 10 17 30.36 1028 10 16.0934 0 0
4:52 am 04:52 Mostly Clear 41 5 22 -5.6 47 47 S 15 24 30.35 1028 10 16.0934 0 0
5:52 am 05:52 Partly Cloudy 40 4.4 21 -6.1 47 47 S 10 17 30.36 1028 10 16.0934 0 0
6:52 am 06:52 Mostly Clear 41 5 20 -6.7 43 43 SSW 13 20 30.36 1028 10 16.0934 0 0
7:52 am 07:52 Mostly Sunny 44 6.7 20 -6.7 38 38 S 14 22 30.37 1028 10 16.0934 0 0
8:52 am 08:52 Sunny 48 8.9 20 -6.7 33 33 SSW 16 26 30.36 1028 10 16.0934 0 0
9:52 am 09:52 Partly Cloudy 52 11.1 22 -5.6 31 31 SSW 17 28 30.36 1028 10 16.0934 0 0
10:52 am 10:52 Partly Cloudy 56 13.3 23 -5 28 28 SSW 17 28 30.35 1028 10 16.0934 0 0
11:52 am 11:52 Partly Cloudy 59 15 25 -3.9 27 27 SSW 20 31 30.34 1027 10 16.0934 0 0
12:52 pm 12:52 Mostly Cloudy 62 16.7 26 -3.3 25 25 SSW 15 24 30.3 1026 10 16.0934 0 0
1:52 pm 13:52 Mostly Cloudy 63 17.2 25 -3.9 24 24 SSW 17 28 30.27 1025 10 16.0934 0 0
2:52 pm 14:52 Mostly Cloudy 64 17.8 26 -3.3 24 24 S 20 31 30.26 1025 10 16.0934 0 0
3:52 pm 15:52 Mostly Cloudy 63 17.2 26 -3.3 25 25 SSW 17 28 30.25 1025 10 16.0934 0 0
4:52 pm 16:52 Mostly Cloudy 62 16.7 26 -3.3 25 25 S 14 22 30.25 1024 10 16.0934 0 0
5:52 pm 17:52 Mostly Cloudy 59 15 27 -2.8 29 29 S 12 19 30.25 1024 10 16.0934 0 0
6:52 pm 18:52 Mostly Cloudy 59 15 27 -2.8 29 29 S 15 24 30.24 1024 10 16.0934 0 0
7:52 pm 19:52 Mostly Cloudy 58 14.4 26 -3.3 29 29 SSW 15 24 30.24 1024 10 16.0934 0 0
8:52 pm 20:52 Mostly Clear 56 13.3 27 -2.8 33 33 S 15 24 30.24 1024 10 16.0934 0 0
9:52 pm 21:52 Mostly Clear 57 13.9 26 -3.3 30 30 SSW 13 20 30.24 1024 10 16.0934 0 0
10:52 pm 22:52 Mostly Clear 57 13.9 25 -3.9 29 29 SSW 16 26 30.24 1024 10 16.0934 0 0
11:52 pm 23:52 Mostly Cloudy 56 13.3 25 -3.9 30 30 SSW 12 19 30.25 1024 10 16.0934 0 0

Powered by AerisWeather